Temperature
17 17 17 17 17 17 17 17 17 16 16 16 16 16 16 15 15 15 15 15 15 15 14 14 14 14 14 14 13 13 13 13 13 13 12 12 12 12
17 17 17 17 17 17 17 16 16 16 16 16 15 15 15 15 15 15 15 14 14 14 14 14 14 13 13 13 13 13 13 12 12 12 12 12 12 11
17 16 16 16 16 16 16 16 16 16 16 15 15 15 14 14 14 14 14 14 14 13 13 13 13 13 13 12 12 12 12 12 12 11 11 11 11 11
16 16 16 16 16 16 16 16 16 16 15 15 14 14 14 14 13 13 13 13 13 12 12 12 12 12 12 12 12 11 11 11 11 11 11 10 10 10
16 16 16 16 16 15 15 15 15 15 15 15 14 14 13 13 13 13 12 12 12 12 12 12 11 11 11 11 11 11 11 10 10 10 10 10 9 9
15 15 15 15 15 15 15 15 15 15 14 14 14 13 13 13 12 12 12 12 11 11 11 11 11 11 10 10 10 10 10 9 9 9 9 9 9 8
15 15 15 15 15 15 15 15 14 14 14 13 13 13 12 12 12 12 11 11 11 11 11 10 10 10 10 10 9 9 9 9 9 9 8 8 8 8
14 14 14 14 14 14 14 14 14 13 13 13 13 12 12 12 11 11 11 11 10 10 10 10 10 9 9 9 9 9 9 8 8 8 8 8 7 7
14 14 14 13 13 13 13 13 13 13 13 12 12 12 12 11 11 11 11 10 10 10 10 9 9 9 9 9 8 8 8 8 8 7 7 7 7 7
13 13 13 13 13 13 13 13 12 12 12 12 12 11 11 11 11 11 10 10 9 9 9 9 9 8 8 8 8 8 8 7 7 7 7 7 6 6
13 12 12 12 12 12 12 12 12 11 11 11 11 11 10 10 10 10 10 9 9 9 9 9 8 8 8 8 8 7 7 7 7 7 7 6 6 6
12 12 12 12 11 11 11 11 11 11 10 10 10 10 10 9 9 9 9 9 9 8 8 8 8 8 8 8 7 7 7 7 7 6 6 6 6 6
12 12 11 11 11 11 10 10 10 10 10 10 9 9 9 9 9 9 8 8 8 8 8 8 8 8 8 7 7 7 7 7 6 6 6 6 6 6
11 11 11 10 10 10 10 10 9 9 9 9 9 9 9 8 8 8 8 8 8 8 8 7 7 7 7 7 7 7 7 6 6 6 6 6 6 5
11 11 10 10 10 9 9 9 9 9 9 9 8 8 8 8 8 8 8 8 8 7 7 7 7 7 7 7 7 7 6 6 6 6 6 5 5 5
10 10 10 9 9 9 8 8 8 8 8 8 8 8 8 8 7 7 7 7 7 7 7 7 7 7 7 7 6 6 6 6 6 6 6 5 5 5
10 10 9 9 9 8 8 8 8 8 8 8 8 8 7 7 7 7 7 7 7 7 7 7 7 6 6 6 6 6 6 6 6 6 5 5 5 5
9 9 9 9 8 8 8 8 8 8 8 7 7 7 7 7 7 7 7 7 7 7 7 6 6 6 6 6 6 6 6 6 6 6 5 5 5 5
9 9 8 8 8 8 8 8 7 7 7 7 7 7 7 7 7 7 7 7 7 6 6 6 6 6 6 6 6 6 6 6 6 6 5 5 5 5
9 8 8 8 8 8 8 7 7 7 7 7 7 7 7 7 7 7 6 6 6 6 6 6 6 6 6 6 6 6 6 6 6 6 5 5 5 5
8 8 8 8 8 8 7 7 7 7 7 7 7 7 7 6 6 6 6 6 6 6 6 6 6 6 6 6 6 6 6 6 6 6 5 5 5 5
8 8 8 8 8 7 7 7 7 7 7 7 7 7 6 6 6 6 6 6 6 6 6 6 6 6 6 6 6 6 6 6 6 5 5 5 5 5
8 8 8 8 7 7 7 7 7 7 7 7 7 7 6 6 6 6 6 6 6 6 6 6 6 6 6 6 6 6 6 6 5 5 5 5 5 5
Wind_Speed
2 2 2 2 2 2 3 4 4 3 3 2 1 1 2 4 4 5 5 4 6 7 8 8 8 7 7 6 6 5 4 4 4 3 3 2 2 1
2 2 1 1 1 1 2 2 3 4 3 2 2 1 2 3 4 6 6 7 7 8 8 7 7 7 6 6 6 5 5 4 4 4 3 3 2 2
1 1 0 0 0 0 0 1 2 3 3 1 1 1 2 3 4 6 6 6 7 8 9 8 8 7 8 8 7 7 6 5 4 4 3 3 3 2
2 2 1 1 1 1 0 0 1 2 3 3 1 1 1 3 4 4 5 5 6 8 9 9 9 9 9 8 8 8 7 6 5 4 4 3 3 4
2 2 1 2 2 1 1 1 0 1 2 3 2 1 1 2 3 3 4 4 5 6 7 8 8 8 8 8 8 8 7 7 6 5 5 5 5 5
3 3 2 2 2 1 1 1 2 3 3 4 3 2 1 1 2 2 3 2 2 4 6 6 7 7 7 7 7 7 7 6 6 6 6 6 6 5
4 4 4 5 5 4 3 2 3 3 3 4 3 2 1 1 1 1 3 2 2 2 3 3 4 3 3 4 6 6 6 5 5 5 5 5 6 6
4 4 5 6 7 8 9 8 6 5 4 3 2 2 1 1 1 2 2 2 1 0 2 1 2 1 1 2 4 6 5 4 4 4 4 4 4 5
4 3 3 5 6 5 8 10 10 9 5 4 4 2 1 1 3 3 3 2 2 1 2 1 1 1 2 2 3 4 4 4 3 2 2 2 2 2
4 3 4 3 4 5 6 7 7 7 5 4 3 2 2 2 3 4 4 4 3 2 2 2 1 1 2 3 3 4 4 4 3 3 2 2 1 1
3 3 4 4 5 7 7 7 6 5 8 10 9 8 8 8 8 5 4 4 2 1 1 2 1 0 1 1 4 5 6 6 5 5 5 4 4 3
3 3 4 5 6 7 6 6 5 2 3 5 6 8 8 8 8 5 4 4 2 0 1 1 1 1 1 1 2 4 5 7 7 7 6 6 5 4
3 2 2 5 6 6 5 4 4 3 3 3 4 4 4 4 4 4 3 3 3 1 2 2 2 1 2 1 2 2 3 4 4 4 5 6 5 5
3 2 2 6 7 7 5 4 5 5 3 4 3 3 2 2 2 3 3 3 3 3 3 4 2 2 2 1 1 2 2 2 2 3 5 5 5 6
3 5 6 7 7 5 5 6 5 4 4 3 2 1 0 1 1 2 4 4 4 2 1 2 3 2 3 2 1 1 1 2 2 2 3 4 4 3
4 5 7 7 6 5 4 4 3 2 3 2 1 0 1 1 1 1 1 2 2 3 4 2 2 3 2 2 2 1 1 1 1 2 2 3 5 5
5 4 3 3 3 3 3 3 2 2 2 2 2 1 1 1 1 1 1 2 2 1 2 3 3 2 2 3 1 1 1 1 2 2 1 2 3 6
5 3 2 2 1 1 1 1 1 1 1 1 2 1 1 1 1 1 1 2 1 0 1 1 2 3 4 2 3 3 2 2 2 1 1 2 3 5
4 3 2 2 2 2 2 1 1 0 1 1 1 1 1 1 1 1 1 1 1 0 1 0 1 2 1 2 4 4 4 2 1 1 2 3 4 5
2 3 2 2 2 2 2 2 1 1 1 1 1 1 1 1 1 0 1 1 0 0 1 1 1 2 4 4 3 3 5 4 3 2 2 2 3 6
2 2 2 2 2 3 3 3 2 2 2 1 1 1 1 1 1 1 1 1 1 1 1 2 4 4 2 2 1 4 4 6 6 5 3 2 2 3
3 2 2 2 3 3 3 3 2 2 2 2 2 2 1 2 2 2 2 1 1 2 2 3 2 1 1 1 2 4 4 5 7 7 8 8 4 4
3 3 3 3 3 3 3 3 3 3 3 3 2 2 2 2 2 2 2 2 2 2 2 2 2 1 1 2 2 3 4 4 3 3 5 10 12 14
Wind_Direction
198 199 208 231 210 204 189 176 177 212 240 218 192 110 120 122 139 140 141 148 159 164 169 173 171 168 168 167 163 158 150 147 148 150 154 155 152 153
173 161 188 232 230 200 182 179 178 188 217 215 196 174 134 118 112 115 117 118 126 143 151 153 153 150 146 142 139 132 127 126 125 124 122 117 107 90
129 136 157 152 168 260 179 177 185 174 204 225 153 143 132 124 106 107 111 115 117 126 130 131 132 136 134 128 123 119 115 115 116 117 110 102 95 93
108 93 63 61 47 27 54 143 188 181 177 188 173 160 151 144 131 122 120 118 116 114 120 122 121 120 121 121 120 115 112 111 112 105 99 99 95 91
110 110 97 87 59 29 57 76 167 132 137 152 157 138 114 131 118 111 110 107 113 116 121 124 126 125 121 119 115 109 106 103 98 92 87 85 84 85
77 78 76 87 83 73 71 92 116 110 110 123 125 107 94 115 111 114 99 75 95 106 106 113 119 121 119 120 116 112 107 100 96 90 87 86 86 85
67 60 64 76 74 75 80 88 108 112 110 112 115 95 86 119 150 148 129 108 62 86 96 101 104 101 113 128 129 127 122 115 108 101 96 95 94 92
87 67 62 58 67 71 77 81 98 117 128 122 118 127 146 158 133 133 134 131 128 27 117 116 129 108 195 183 165 155 148 140 130 119 110 108 103 100
97 88 80 70 69 72 69 67 63 68 94 128 127 139 152 185 147 125 124 118 135 181 130 126 124 201 237 210 196 189 181 170 161 156 147 124 111 92
93 98 100 83 84 91 82 71 60 48 61 86 114 116 116 129 139 144 137 109 78 52 101 130 182 243 258 243 224 214 214 206 204 216 232 239 243 301
77 80 96 92 93 100 95 88 71 49 61 78 85 86 90 96 107 107 106 102 74 11 16 114 155 221 306 284 250 239 240 242 246 255 262 264 268 284
68 59 77 99 101 104 105 105 97 66 57 55 57 60 66 73 82 102 133 128 120 102 302 117 113 104 38 305 278 261 258 259 258 260 264 268 268 276
100 69 56 94 102 104 109 115 128 118 86 79 67 55 50 48 51 69 110 134 139 185 216 146 128 114 135 285 309 272 250 255 262 266 274 273 266 248
125 109 82 87 85 83 83 91 107 105 92 83 76 63 55 37 15 49 78 106 134 171 184 154 144 154 137 110 299 307 292 270 243 262 281 284 276 263
118 112 96 85 77 67 65 76 87 92 95 92 90 68 315 311 13 31 40 56 54 41 86 150 143 144 141 160 205 266 305 302 257 245 265 264 260 254
101 89 80 71 69 63 53 53 63 92 114 121 130 11 14 32 28 40 53 38 42 354 359 42 124 138 141 167 167 206 226 250 259 242 246 270 274 262
116 87 72 68 57 45 43 39 45 68 81 86 97 77 57 51 15 20 69 68 71 348 335 348 22 70 169 166 161 216 241 259 245 226 216 282 278 272
114 115 116 115 124 132 118 61 47 72 94 99 102 110 118 109 41 22 63 89 99 306 303 319 18 24 16 345 212 194 231 243 257 240 198 222 272 278
114 134 149 161 174 180 180 180 194 204 131 114 119 129 127 104 83 42 61 75 68 358 294 267 106 109 85 310 300 229 194 229 250 268 243 217 239 261
140 153 165 180 184 185 192 191 189 167 144 143 146 159 155 144 132 144 163 160 185 252 322 323 203 186 191 213 249 278 243 202 207 234 256 262 267 283
174 178 183 185 192 192 195 192 185 187 188 179 181 190 191 161 177 208 201 193 165 171 241 262 259 243 180 102 342 302 288 266 234 213 220 250 290 306
190 198 205 200 195 196 198 194 189 194 196 196 203 213 216 190 195 208 206 206 222 223 241 266 295 19 115 172 244 265 285 301 301 282 251 232 202 225
196 197 199 203 205 203 195 194 194 201 205 206 210 219 214 207 212 214 226 229 235 246 255 274 300 296 230 214 231 258 278 287 295 307 293 285 269 262
Height
1560 1560 1561 1561 1561 1562 1562 1562 1563 1561 1561 1561 1562 1561 1562 1562 1562 1562 1561 1561 1561 1560 1561 1561 1561 1561 1561 1561 1561 1561 1561 1561 1561 1561 1561 1561 1561 1561
1557 1557 1557 1557 1557 1558 1558 1558 1558 1558 1557 1557 1557 1558 1558 1558 1558 1558 1558 1558 1558 1558 1558 1558 1558 1557 1557 1558 1558 1558 1558 1558 1558 1558 1558 1558 1558 1557
1554 1554 1554 1554 1554 1554 1554 1554 1554 1554 1553 1553 1554 1554 1555 1555 1555 1555 1555 1555 1555 1555 1555 1555 1555 1555 1555 1555 1555 1555 1555 1555 1555 1555 1554 1554 1554 1554
1551 1551 1551 1551 1550 1550 1550 1550 1550 1550 1550 1549 1550 1551 1552 1552 1552 1552 1552 1553 1553 1552 1553 1553 1553 1553 1552 1552 1552 1552 1552 1552 1552 1552 1551 1551 1551 1551
1548 1548 1548 1548 1547 1547 1547 1547 1547 1547 1547 1546 1546 1548 1549 1549 1549 1550 1550 1550 1551 1551 1551 1551 1551 1551 1551 1550 1550 1549 1549 1550 1549 1549 1548 1548 1548 1548
1546 1546 1545 1545 1545 1545 1544 1544 1544 1544 1544 1544 1544 1545 1546 1547 1547 1547 1548 1548 1549 1549 1549 1549 1550 1550 1549 1549 1549 1548 1548 1548 1548 1547 1547 1546 1546 1546
1544 1544 1544 1544 1543 1543 1543 1542 1542 1542 1542 1542 1542 1543 1544 1544 1545 1545 1545 1546 1547 1547 1548 1548 1548 1548 1548 1548 1548 1548 1547 1547 1547 1546 1546 1545 1544 1544
1542 1542 1543 1543 1543 1542 1542 1541 1541 1541 1541 1541 1541 1541 1542 1543 1543 1543 1544 1544 1544 1546 1546 1547 1547 1547 1547 1547 1547 1547 1547 1547 1546 1546 1545 1544 1544 1543
1541 1542 1542 1542 1542 1542 1541 1541 1541 1540 1541 1541 1541 1541 1541 1541 1542 1542 1542 1543 1543 1544 1545 1545 1546 1546 1547 1547 1547 1546 1546 1546 1546 1545 1545 1544 1543 1543
1541 1541 1542 1541 1541 1541 1541 1540 1540 1540 1540 1540 1540 1540 1540 1541 1541 1542 1542 1542 1543 1544 1545 1545 1545 1546 1546 1546 1546 1546 1546 1546 1546 1545 1544 1544 1543 1542
1541 1541 1542 1541 1541 1541 1541 1540 1540 1540 1540 1540 1540 1540 1540 1540 1540 1541 1541 1542 1542 1543 1544 1544 1544 1545 1545 1546 1546 1546 1546 1546 1545 1545 1544 1543 1542 1542
1541 1541 1541 1541 1541 1541 1541 1540 1540 1540 1541 1541 1540 1540 1540 1540 1540 1541 1541 1541 1542 1542 1543 1543 1543 1544 1544 1545 1545 1545 1545 1544 1544 1544 1543 1542 1541 1541
1541 1541 1541 1541 1541 1541 1541 1541 1540 1541 1541 1541 1540 1540 1540 1540 1540 1541 1541 1541 1541 1541 1542 1542 1542 1542 1543 1543 1544 1544 1543 1543 1543 1542 1542 1541 1540 1539
1541 1541 1541 1541 1541 1541 1541 1541 1541 1541 1541 1541 1541 1541 1541 1541 1541 1541 1541 1541 1541 1542 1542 1542 1541 1542 1542 1542 1543 1543 1542 1542 1542 1541 1540 1540 1539 1538
1540 1540 1541 1541 1541 1541 1541 1541 1541 1541 1542 1542 1542 1542 1542 1542 1542 1542 1542 1542 1542 1542 1542 1541 1541 1541 1541 1541 1541 1541 1541 1541 1540 1540 1539 1538 1537 1536
1540 1540 1541 1541 1541 1541 1541 1541 1541 1542 1542 1542 1543 1543 1543 1542 1542 1542 1542 1542 1542 1542 1542 1541 1541 1541 1540 1540 1540 1540 1539 1539 1539 1539 1538 1537 1536 1535
1540 1540 1540 1541 1541 1541 1541 1541 1542 1542 1542 1542 1543 1543 1543 1543 1542 1542 1542 1542 1542 1542 1541 1541 1541 1540 1540 1540 1539 1539 1539 1538 1538 1537 1536 1535 1534 1533
1540 1540 1540 1540 1541 1541 1541 1541 1542 1542 1542 1542 1542 1542 1542 1542 1542 1542 1542 1542 1542 1541 1541 1541 1540 1540 1540 1539 1539 1538 1537 1537 1536 1535 1534 1533 1532 1531
1539 1539 1540 1540 1540 1541 1541 1541 1541 1542 1542 1542 1542 1542 1542 1542 1542 1542 1542 1542 1541 1541 1541 1540 1540 1539 1538 1537 1537 1537 1536 1535 1534 1533 1532 1531 1530 1528
1538 1539 1539 1540 1540 1541 1541 1541 1541 1542 1542 1542 1542 1542 1542 1542 1542 1541 1541 1541 1541 1540 1540 1540 1539 1538 1537 1537 1536 1536 1535 1534 1533 1531 1530 1529 1527 1526
1538 1538 1539 1539 1540 1540 1540 1541 1541 1541 1541 1541 1541 1541 1541 1541 1541 1541 1541 1541 1540 1540 1539 1538 1538 1537 1536 1535 1535 1534 1533 1532 1531 1530 1528 1526 1524 1523
1537 1538 1538 1539 1539 1539 1540 1540 1540 1540 1540 1540 1540 1540 1540 1540 1540 1539 1539 1539 1539 1538 1537 1537 1536 1536 1535 1534 1532 1532 1531 1530 1529 1528 1526 1525 1522 1520
1537 1537 1538 1538 1538 1538 1538 1538 1538 1538 1538 1538 1538 1538 1538 1538 1538 1538 1537 1537 1537 1536 1535 1535 1534 1533 1532 1531 1530 1529 1528 1527 1525 1524 1523 1521 1520 1518